Simultaneous Nadir Overpasses (SNOs) Predictions

Prediction of SNOs between AQUA and NOAA-19 Satellite Orbit:

Table of predicted SNOs for the next 14.0 days since TLE Epoch: 9/21/2019
Index Date (AQUA) Time (AQUA) Lat,Lon (AQUA) SZA (AQUA ) Date (NOAA-19) Time (NOAA-19) Lat,Lon (NOAA-19) SZA (NOAA-19 ) Distance(km) Time Diff (sec)
1 09/22/2019 23:35:10 80.23, 153.68 81.43 09/22/2019 23:33:59 80.25, 153.80 81.47 3.27 71
2 09/23/2019 00:24:37 -80.26, -38.97 98.51 09/23/2019 00:24:58 -80.25, -38.86 98.53 2.17 21
3 09/25/2019 05:58:22 80.25, 57.66 82.33 09/25/2019 05:58:22 80.24, 57.72 82.32 1.37 0
4 09/27/2019 11:32:06 -80.24, 154.35 96.85 09/27/2019 11:31:45 -80.23, 154.31 96.84 0.84 21
5 09/27/2019 12:21:33 80.24, -38.08 83.18 09/27/2019 12:22:44 80.26, -38.04 83.17 1.72 71
6 09/29/2019 17:05:50 80.21,-108.84 83.96 09/29/2019 17:05:07 80.24,-108.90 84.01 3.16 43
7 09/29/2019 17:55:18 -80.26, 58.32 95.94 09/29/2019 17:56:08 -80.24, 58.40 95.99 2.86 50
8 10/01/2019 22:39:35 -80.23, -12.43 95.17 10/01/2019 22:38:31 -80.23, -12.27 95.15 3.11 64
9 10/01/2019 23:29:02 80.24, 155.07 84.88 10/01/2019 23:29:30 80.23, 154.97 84.86 2.36 28




NCC Satellite Simultaneous Nadir Overpasses (SNOs) Prediction Service
